Regional Weather Roundup
Issued by NWS

Home | Current Version | Previous Version | Text Only | Print | Product List | Glossary Off
Versions: 1 2 3 4 5 6 7 8 9 10 11 12 13 14 15 16 17 18 19 20 21 22 23 24 25 26 27 28 29 30 31 32 33 34 35 36 37 38 39 40 41 42 43 44 45 46 47 48 49 50

000
ASUS43 KMKX 140459
RWRWI

WISCONSIN REGIONAL WEATHER ROUNDUP
NATIONAL WEATHER SERVICE MILWAUKEE/SULLIVAN WI
1100 PM CST WED DEC 13 2017

NOTE: "FAIR" INDICATES FEW OR NO CLOUDS BELOW 12,000 FEET WITH NO
SIGNIFICANT WEATHER AND/OR OBSTRUCTIONS TO VISIBILITY.

WIZ001-002-006>008-014>016-023>028-140600-
NORTHWEST WISCONSIN

CITY           SKY/WX    TMP DP  RH WIND       PRES   REMARKS
SUPERIOR ARPT  MOCLDY    15  12  89 CALM      29.96R
ASHLAND        CLOUDY    14  10  84 NW7       29.93R WCI   4
HAYWARD        CLOUDY    19  12  74 N3        29.90R
SIREN          FLURRIES  15  14  95 CALM      29.93R
CUMBERLAND     FLURRIES  18  12  79 NW5       29.90R WCI  11
RICE LAKE      CLOUDY    16  14  95 CALM      29.92R
CHETEK           N/A     15  13  91 CALM      29.90S
LADYSMITH      CLEAR     13  11  91 NW7       29.90S WCI   3
EAU CLAIRE     NOT AVBL
MENOMONIE      FLURRIES  12   9  88 CALM      29.92F
NEW RICHMOND   PTCLDY     8   5  86 NE5       29.92S WCI   0
OSCEOLA        FLURRIES  18  16  90 CALM      29.96S
$$

WIZ003>005-009-010-017-018-140600-
NORTH CENTRAL WISCONSIN

CITY           SKY/WX    TMP DP  RH WIND       PRES   REMARKS
MANITOWISH WTR LGT SNOW  15  13  93 N3        29.82R
ARBOR VITAE    CLOUDY    17  11  80 N17       29.82R WCI   1
WOODRUFF       CLOUDY    17  11  80 N17       29.82R WCI   1
RHINELANDER    CLOUDY    15  11  83 NW3       29.82R
EAGLE RIVER    CLOUDY    15   9  78 N7        29.80R WCI   5
LAND O LAKES   CLOUDY    15  10  78 N7        29.82R WCI   5
PHILLIPS       CLOUDY    14  12  94 CALM      29.85R
TOMAHAWK       CLOUDY    12  10  89 CALM      29.83R
MEDFORD        CLOUDY    10   8  89 NW3       29.84R
MERRILL        CLOUDY    11   9  89 CALM      29.85R
$$

WIZ029-030-035-036-043>047-140600-
CENTRAL WISCONSIN

CITY           SKY/WX    TMP DP  RH WIND       PRES   REMARKS
WAUSAU         CLOUDY    13  10  88 NW6       29.84R WCI   4
MOSINEE        NOT AVBL
MARSHFIELD     CLOUDY    11   8  88 N7        29.84R WCI   0
STEVENS POINT  CLOUDY     6   5  95 CALM      29.86R
WAUPACA        CLEAR     14  10  83 CALM      29.86S
WAUTOMA        CLEAR     14   9  80 NW5       29.88R WCI   6
WISC RAPIDS    CLEAR     13  10  88 N8        29.89R WCI   2
CAMP DOUGLAS   NOT AVBL
$$

WIZ011>013-019>022-031-037>040-048>050-140600-
NORTHEAST WISCONSIN

CITY           SKY/WX    TMP DP  RH WIND       PRES   REMARKS
ANTIGO         LGT SNOW   8   6  91 CALM      29.80F
SHAWANO        CLOUDY    12   9  85 W3        29.86R
OCONTO         CLOUDY     6   4  89 CALM      29.85R
STURGEON BAY   FLURRIES  17  13  84 N16       29.83R WCI   2
GREEN BAY      CLOUDY     9   4  80 NW9       29.87R WCI  -4
MANITOWOC      PTCLDY    14   7  73 N10       29.83R WCI   1
APPLETON       PTCLDY    12   7  79 NW8       29.83R WCI   1
CLINTONVILLE   NOT AVBL
OSHKOSH        CLEAR     14   7  73 N14       29.85R WCI  -1
$$

WIZ032>034-041-042-053>061-140600-
SOUTHWEST WISCONSIN

CITY           SKY/WX    TMP DP  RH WIND       PRES   REMARKS
LA CROSSE      CLEAR     19  12  74 CALM      29.93R
SPARTA         CLOUDY    18  14  85 N5        29.90R WCI  11
VIROQUA        MOCLDY    17  14  90 N8        29.86R WCI   6
BOSCOBEL       PTCLDY    21  13  71 NE5       29.90R WCI  15
PRAIRIE DU CHI CLEAR     22  13  66 N7        29.89R WCI  14
PLATTEVILLE    CLOUDY    23  16  75 N14       29.85R WCI  10
$$

WIZ056-057-062-063-064-067-068-140600-
SOUTH CENTRAL WISCONSIN

CITY           SKY/WX    TMP DP  RH WIND       PRES   REMARKS
REEDSBURG      CLOUDY    19  12  74 N9        29.87R WCI   8
BARABOO/DELLS  PTCLDY    18  14  84 N8        29.87R WCI   7
LONE ROCK      CLOUDY    21  15  78 N10       29.89R WCI  10
MINERAL POINT  FLURRIES  23  19  86 N12G18    29.84R WCI  12
MADISON        PTCLDY    18  12  77 N16       29.86R WCI   3
MIDDLETON      CLOUDY    23  17  77 N15       29.85R WCI  10
WATERTOWN      CLEAR     17  13  83 N12G20    29.81R WCI   4
MONROE         CLOUDY    23  18  80 N9G18     29.81R WCI  13
JANESVILLE     CLOUDY    25  18  74 N15G21    29.81R WCI  12
$$

WIZ051-052-058>065-066-070>072-140600-
SOUTHEAST WISCONSIN

CITY           SKY/WX    TMP DP  RH WIND       PRES   REMARKS
MILWAUKEE      CLOUDY    24  17  74 N17G26    29.78R WCI  11
WAUKESHA       PTCLDY    18  14  86 NW15      29.78R WCI   3
MILWAUKEE/TIMM PTCLDY    21  14  73 NW15      29.78R WCI   8
RACINE         LGT SNOW  25  20  81 N23G30    29.77R WCI  10
BURLINGTON     FLURRIES  23  20  88 N13       29.76R WCI  12
KENOSHA        FLURRIES  26  21  81 N12G22    29.75R WCI  16
FOND DU LAC    PTCLDY    16   7  67 N12       29.85R WCI   3
SHEBOYGAN      CLEAR     16   9  74 N14G21    29.80R WCI   2
WEST BEND      CLEAR     18  12  79 N10G20    29.80R WCI   6
JUNEAU         CLEAR     15   9  76 N15       29.82R WCI   0
$$

LSZ147-162-140600-
LAKE SUPERIOR

STATION/POSITION TIME  TEMP    WIND        PRES    WAVE
                       AIR SEA DIR/SP/G            HT/PER
                 (UTC) (F)     (DEG/KT/KT) (MB)    (FT/S)
DEVILS ISLAND    0400   18     360/ 14/ 17 1014.7R
SAXON HARBOR     0440   22                 1012.9R
$$

LMZ867-665-643>646-140600-
LAKE MICHIGAN

STATION/POSITION TIME  TEMP    WIND        PRES    WAVE
                       AIR SEA DIR/SP/G            HT/PER
                 (UTC) (F)     (DEG/KT/KT) (MB)    (FT/S)
NORTHPORT PIER   0440   21     360/ 17/ 22 1009.5R
KEWAUNEE LAKESHO 0424   17     360/ 11/ 15 1008.8
SHEBOYGAN LAKESH 0400   22     350/ 25/ 27 1008.4R
PORT WASHINGTON  0440   19     330/  9/ 18 1009.8R
MILWAUKEE LAKESH 0430   24     340/ 14/ 18   N/A
KENOSHA   LAKESH 0400   29      10/ 23/ 30 1006.1
$$

TC  - TEMPERATURE IN CELSIUS
VSB - VISIBILITY IN STATUTE MILES
WCI - WIND CHILL INDEX
HX  - HEAT INDEX





USA.gov is the U.S. government's official web portal to all federal, state and local government web resources and services.